Location: Borzechowo
(53.8876°N, 18.3492°E)
Time: 05:15:48
(UTC+02:00)

ISS - Visible Passes

Search period start: 28 May 2018 00:00
Search period end: 07 June 2018 00:00
Orbit: 402 x 407 km, 51.6° (Epoch: 28 May)

Date Brightness Start Highest point End Pass type
(mag) Time Alt. Az. Time Alt. Az. Time Alt. Az.
28 May -1.6 01:07:39 10° WSW 01:08:21 13° WSW 01:08:21 13° WSW visible
28 May -3.7 22:38:35 10° W 22:41:47 54° S 22:45:00 10° ESE visible
29 May -2.6 00:15:10 10° W 00:17:42 24° SSW 00:17:42 24° SSW visible
29 May -3.0 23:22:50 10° W 23:25:49 33° SSW 23:27:06 24° SSE visible
30 May -3.3 22:30:34 10° W 22:33:42 42° SSW 22:36:31 12° SE visible
31 May -1.8 00:07:38 10° WSW 00:09:08 15° SW 00:09:08 15° SW visible
31 May -2.3 23:14:59 10° W 23:17:35 22° SSW 23:18:34 19° S visible
01 Jun -2.7 22:22:34 10° W 22:25:29 29° SSW 22:28:02 12° SE visible
02 Jun -1.6 23:07:32 10° WSW 23:09:11 13° SW 23:10:09 12° SSW visible
03 Jun -2.0 22:14:43 10° W 22:17:08 19° SSW 22:19:33 10° SSE visible
05 Jun -1.4 22:07:31 10° WSW 22:08:38 11° SW 22:09:47 10° SSW visible
